Regional Weather Roundup
Issued by NWS Newport/Morehead, NC

Current Version | Previous Version | Text Only | Print | Product List | Glossary On
Versions: 1 2 3 4 5 6 7 8 9 10 11 12 13 14 15 16 17 18 19 20 21 22 23 24 25 26 27 28 29 30 31 32 33 34 35 36 37 38 39 40 41 42 43 44 45 46 47 48 49 50
684
ASUS42 KMHX 210024
RWRMHX
WEATHER ROUNDUP FOR EASTERN NORTH CAROLINA
NATIONAL WEATHER SERVICE NEWPORT/MOREHEAD CITY NC
700 PM EST MON FEB 20 2017

NOTE: "FAIR" INDICATES FEW OR NO CLOUDS BELOW 12,000 FEET
WITH NO SIGNIFICANT WEATHER AND/OR OBSTRUCTIONS TO VISIBILITY

NCZ015>017-031-032-045>047-102-103-210100-
NORTH COAST

CITY           SKY/WX    TMP DP  RH WIND       PRES   REMARKS
EDENTON        CLEAR     51  41  69 E3        30.24R
ELIZABETH CITY CLEAR     49  39  68 E5        30.24R
KITTY HAWK     NOT AVBL
MANTEO         CLEAR     47  43  84 E7        30.23S

$$

NCZ045>047-081-094-103-104-210100-
CENTRAL COAST

CITY           SKY/WX    TMP DP  RH WIND       PRES   REMARKS
FRISCO         CLEAR     53  41  63 NE5       30.22R

$$

NCZ095-097-098-100-101-210100-
SOUTHERN COAST

CITY           SKY/WX    TMP DP  RH WIND       PRES   REMARKS
BEAUFORT       CLOUDY    56  46  69 NE5       30.21R
CEDAR ISLAND   NOT AVBL
JACKSONVILLE   PTCLDY    57  48  72 SE5       30.20R
PINEY ISLAND   MOCLDY   N/A N/A N/A E9        30.22R
WILMINGTON     PTCLDY    57  50  77 E5        30.19S


$$

NCZ011>013-027>030-043-044-078>080-089-090>093-098-210100-
COASTAL PLAIN

CITY           SKY/WX    TMP DP  RH WIND       PRES   REMARKS
AHOSKIE          N/A     53  39  59 CALM      30.22R
CLINTON        CLOUDY    58  43  56 CALM      30.19S
ELIZABETHTOWN  PTCLDY    63  44  51 CALM      30.18S
GOLDSBORO      PTCLDY    59  39  47 E5        30.18R
GREENVILLE     PTCLDY    55  41  58 CALM      30.21S
HAVELOCK       PTCLDY    56  44  64 E5        30.22R
KENANSVILLE    NOT AVBL
KINSTON        PTCLDY    55  41  58 CALM        N/A
NEW BERN       PTCLDY    56  41  57 E3        30.22R
RICHLANDS      PTCLDY    58  47  66 CALM      30.20R
ROCKY MOUNT    PTCLDY    56  43  61 CALM      30.20R
WASHINGTON     CLOUDY    54  42  62 CALM      30.21S
WHITEVILLE     MOCLDY    64  47  53 S3        30.18R

$$

AMZ130-135-150-152-154-156-158-170-250-252-270-ANZ085-086-088-633-658-670-210100-
MARINE OBSERVATIONS

STATION/POSITION TIME  TEMP    WIND        PRES    WAVE   SWELL
                       AIR SEA DIR/SP/G            HT/PER HT/PER
                 (UTC) (F)     (DEG/KT/KT) (MB)    (FT/S) (FT/S)
CHESAPEAKE LIGHT NOT AVBL
64 E VA BEACH    2350   52 54   20/ 12/ 14 1023.7    3/ 5   2/ 6
DUCK             0000   49 49   70/  6/  8 1023.3
2 E DUCK         0000      49                N/A     1/ 5
OREGON INLET     0000   48 52   20/  7/  9 1023.4
13E OREGON INLT  NOT AVBL
HATTERAS CG      0000   53 57   40/  6/ 10 1022.9
DIAMOND BUOY     2350   59 65   20/ 19/ 23 1022.7    4/ 6   2/11
CAPE LOOKOUT     0000   58      40/ 14/ 15 1022.6
BEAUFORT LAB     0000   56 54   60/  5/  7 1022.0
30 SE NEW RVR IN 0008   62      80/ 14/ 19 1022.6
30 SE NEW RVR IN 0013      65                N/A     4/ 6
27 SE WRIGHTSVLE 0008   62 62   90/ 12/ 17 1021.7
5 SE WRIGHTSVLE  0008   58 56   70/  6/ 10 1022.1
225 S CAPE HAT   2350   70 71   10/ 17/ 19 1019.8    5/ 7   2/15
41 SE CHARLESTON 2350   66 69   50/  8/  8 1021.2    2/ 4   2/ 4

$$




USA.gov is the U.S. government's official web portal to all federal, state and local government web resources and services.